Location: Le Vaud
(46.4779°N, 6.2346°E)
Time: 03:45:57
(UTC+00:00)

Cosmos 2100 Rocket - Pass Details

Date: 18 February 2020
Orbit: 955 x 1002 km, 82.9° (Epoch: 09 April)

Event Time Altitude Azimuth Distance (km) Brightness Sun altitude
Rises 05:19:09 0° 348° (NNW) 3,688 6.9 -13.7°
Reaches altitude 10° 05:21:43 10° 344° (NNW) 2,729 6.2 -13.2°
Maximum altitude 05:27:48 57° 268° (W) 1,130 4.0 -12.2°
Drops below altitude 10° 05:33:47 10° 191° (SSW) 2,685 6.3 -11.1°
Sets 05:36:17 0° 188° (S) 3,623 7.0 -10.7°
